Weather reports worldwide

Advertisment
Cardinham, United Kingdom (3823): temperature & dewpoint: 18.05.2018 07:00:00 - 24.05.2018 07:00:00 (BST)Cardinham, United Kingdom (3823): temperature -20cm & temperature -100cm: 18.05.2018 07:00:00 - 24.05.2018 07:00:00 (BST)Cardinham, United Kingdom (3823): wind speed: 18.05.2018 07:00:00 - 24.05.2018 07:00:00 (BST)Cardinham, United Kingdom (3823): wind direction: 18.05.2018 07:00:00 - 24.05.2018 07:00:00 (BST)Cardinham, United Kingdom (3823): reduced air pressure: 18.05.2018 07:00:00 - 24.05.2018 07:00:00 (BST)Cardinham, United Kingdom (3823): visibility: 18.05.2018 07:00:00 - 24.05.2018 07:00:00 (BST)Cardinham, United Kingdom (3823): precipitation: 18.05.2018 07:00:00 - 24.05.2018 07:00:00 (BST)
Date & Time tt [°C] td [°C] tt -20cm [°C] tt -100cm [°C] ff [km/h] ff [kn] dd ppp [hPa] vv [km] rr [mm]
24.05.2018 07:00:00 13,5 11,3 - - 4 2 SE 1019,9 13 0,0
24.05.2018 06:00:00 12,8 10,8 - - 8 4 E 1020,0 12 0,0
24.05.2018 05:00:00 13,0 10,9 - - 8 4 E 1020,3 12 0,0
24.05.2018 04:00:00 12,6 10,8 - - 9 5 ENE 1020,7 10 0,0
24.05.2018 03:00:00 12,9 10,7 - - 11 6 ENE 1020,8 12 0,0
24.05.2018 02:00:00 13,8 10,4 - - 15 8 ENE 1020,9 16 0,0
24.05.2018 01:00:00 12,1 9,6 - - 13 7 ENE 1021,4 13 0,0
24.05.2018 00:00:00 12,5 9,5 - - 15 8 ENE 1021,7 14 0,0
23.05.2018 23:00:00 14,5 10,3 - - 18 10 NE 1021,7 14 0,0
23.05.2018 22:00:00 13,7 10,7 - - 11 6 NE 1021,8 18 0,0
23.05.2018 21:00:00 15,4 11,6 - - 8 4 NW 1021,5 14 0,0
23.05.2018 20:00:00 18,3 11,4 - - 5 3 W 1021,2 19 0,0
23.05.2018 19:00:00 19,0 12,0 - - 8 4 W 1021,0 25 0,0
23.05.2018 18:00:00 17,0 12,1 - - 5 3 SSW 1021,5 18 0,0
23.05.2018 17:00:00 18,7 11,5 - - 9 5 SSW 1021,5 18 0,0
23.05.2018 16:00:00 18,8 12,2 - - 11 6 S 1021,8 16 0,0
23.05.2018 15:00:00 18,7 12,2 - - 8 4 SSW 1022,1 19 0,0
23.05.2018 14:00:00 18,9 13,1 - - 15 8 SSW 1022,1 20 0,0
23.05.2018 13:00:00 19,2 12,5 - - 11 6 SSW 1022,2 24 0,0
23.05.2018 12:00:00 19,6 11,5 - - 8 4 S 1022,1 15 0,0
23.05.2018 11:00:00 19,5 9,9 - - 9 5 SE 1022,0 27 0,0
23.05.2018 10:00:00 18,5 8,3 15,2 12,7 13 7 E 1022,0 19 0,0
23.05.2018 09:00:00 17,2 8,4 - - 13 7 NE 1021,9 45 0,0
23.05.2018 08:00:00 15,1 9,2 - - 15 8 ENE 1022,0 35 0,0
23.05.2018 07:00:00 12,8 8,8 - - 18 10 NE 1021,9 24 0,0
23.05.2018 06:00:00 11,7 8,1 - - 18 10 ENE 1021,6 22 0,0
23.05.2018 05:00:00 12,2 8,9 - - 22 12 NE 1021,1 20 0,0
23.05.2018 04:00:00 11,7 9,2 - - 13 7 ENE 1021,1 20 0,0
23.05.2018 03:00:00 12,0 9,5 - - 15 8 ENE 1021,2 17 0,0
23.05.2018 02:00:00 12,8 9,6 - - 15 8 NE 1021,2 17 0,0
23.05.2018 01:00:00 12,7 10,0 - - 15 8 NE 1021,2 20 0,0
23.05.2018 00:00:00 12,3 10,3 - - 9 5 NE 1021,1 22 0,0
22.05.2018 23:00:00 11,7 9,2 - - 9 5 N 1020,9 20 0,0
22.05.2018 22:00:00 13,0 9,9 - - 13 7 NNW 1020,4 24 0,0
22.05.2018 21:00:00 14,6 10,0 - - 13 7 N 1019,5 30 0,0
22.05.2018 20:00:00 15,8 10,0 - - 13 7 N 1019,1 20 0,0
22.05.2018 19:00:00 17,2 11,2 - - 16 9 NNW 1018,8 20 0,0
22.05.2018 18:00:00 18,4 11,8 - - 22 12 NW 1018,5 28 0,0
22.05.2018 17:00:00 19,5 12,6 - - 21 11 NW 1018,1 30 0,0
22.05.2018 16:00:00 22,0 10,0 - - 11 6 N 1017,9 35 0,0
22.05.2018 15:00:00 21,5 9,2 - - 8 4 NNE 1017,8 23 0,0
22.05.2018 14:00:00 21,5 9,8 - - 9 5 N 1017,7 40 0,0
22.05.2018 13:00:00 20,4 13,0 - - 9 5 WNW 1017,8 16 0,0
22.05.2018 12:00:00 19,6 10,9 - - 11 6 N 1017,8 30 0,0
22.05.2018 11:00:00 18,7 14,0 - - 15 8 NNW 1017,6 13 0,0
22.05.2018 10:00:00 16,2 13,6 14,7 12,4 18 10 NNW 1017,5 14 0,0
22.05.2018 09:00:00 15,0 13,3 - - 13 7 N 1017,6 20 0,0
22.05.2018 08:00:00 10,9 10,8 - - 16 9 N 1017,7 8 0,0
22.05.2018 07:00:00 10,3 10,1 - - 21 11 NW 1017,3 3,4 0,0
22.05.2018 06:00:00 10,0 9,7 - - 16 9 NW 1016,6 4,0 0,0
22.05.2018 05:00:00 9,8 9,4 - - 15 8 NNW 1016,3 8 0,0
22.05.2018 04:00:00 9,7 9,2 - - 15 8 NNW 1016,4 9 0,0
22.05.2018 03:00:00 9,4 8,7 - - 18 10 NNW 1016,7 11 0,0
22.05.2018 02:00:00 9,6 8,2 - - 18 10 NW 1016,8 19 0,0
22.05.2018 01:00:00 9,8 7,5 - - 15 8 NNW 1016,9 35 0,0
22.05.2018 00:00:00 10,6 7,0 - - 18 10 NNW 1017,1 35 0,0
21.05.2018 23:00:00 11,9 6,4 - - 16 9 NNW 1016,8 40 0,0
21.05.2018 22:00:00 12,0 7,3 - - 13 7 N 1016,8 29 0,0
21.05.2018 21:00:00 13,4 8,7 - - 13 7 N 1016,5 28 0,0
21.05.2018 20:00:00 15,1 8,8 - - 16 9 N 1016,1 35 0,0
21.05.2018 19:00:00 16,7 8,9 - - 21 11 N 1015,9 30 0,0
21.05.2018 18:00:00 17,6 10,4 - - 18 10 N 1015,5 20 0,0
21.05.2018 17:00:00 19,5 10,7 - - 18 10 N 1015,1 21 0,0
21.05.2018 16:00:00 19,9 11,3 - - 16 9 N 1015,2 30 0,0
21.05.2018 15:00:00 20,5 12,8 - - 21 11 NNW 1015,3 20 0,0
21.05.2018 14:00:00 20,5 13,2 - - 9 5 N 1015,3 15 0,0
21.05.2018 13:00:00 18,7 8,8 - - 5 3 NNE 1015,7 28 0,0
21.05.2018 12:00:00 18,1 9,1 - - 5 3 NE 1015,9 27 0,0
21.05.2018 11:00:00 17,4 8,2 - - 11 6 E 1016,2 22 0,0
21.05.2018 10:00:00 16,1 8,5 14,7 12,2 8 4 E 1016,4 18 0,0
21.05.2018 09:00:00 14,6 7,9 - - 8 4 E 1016,5 25 0,0
21.05.2018 08:00:00 12,0 7,5 - - 9 5 E 1016,8 16 0,0
21.05.2018 07:00:00 10,5 5,7 - - 9 5 E 1016,8 17 0,0
21.05.2018 06:00:00 9,7 4,9 - - 9 5 E 1016,8 15 0,0
21.05.2018 05:00:00 9,6 4,7 - - 8 4 ESE 1016,9 18 0,0
21.05.2018 04:00:00 8,9 4,7 - - 9 5 ESE 1017,2 17 0,0
21.05.2018 03:00:00 9,4 5,2 - - 9 5 E 1017,6 22 0,0
21.05.2018 02:00:00 9,0 6,2 - - 5 3 E 1018,3 23 0,0
21.05.2018 01:00:00 8,8 8,3 - - 8 4 NE 1018,8 6 0,0
21.05.2018 00:00:00 8,5 8,2 - - 8 4 ENE 1019,1 8 0,0
20.05.2018 23:00:00 8,4 8,1 - - 4 2 E 1019,3 1,4 0,0
20.05.2018 22:00:00 9,7 9,4 - - 4 2 SE 1019,4 - 0,0
20.05.2018 21:00:00 10,3 9,7 - - 5 3 SE 1019,2 1,1 0,0
20.05.2018 20:00:00 11,0 10,3 - - 9 5 SE 1019,1 2,5 0,0
20.05.2018 19:00:00 11,6 10,5 - - 13 7 S 1019,2 3,7 0,0
20.05.2018 18:00:00 12,6 10,8 - - 11 6 S 1019,3 6 0,0
20.05.2018 17:00:00 14,8 11,3 - - 15 8 SSE 1019,6 9 0,0
20.05.2018 16:00:00 16,5 11,2 - - 21 11 SSE 1019,8 16 0,0
20.05.2018 15:00:00 15,3 11,1 - - 21 11 SSE 1020,5 14 0,0
20.05.2018 14:00:00 15,2 10,1 - - 24 13 SSE 1020,9 20 0,0
20.05.2018 13:00:00 16,3 10,3 - - 24 13 SSE 1021,1 22 0,0
20.05.2018 12:00:00 15,4 8,8 - - 26 14 SE 1021,4 19 0,0
20.05.2018 11:00:00 14,4 7,7 - - 24 13 SSE 1021,5 30 0,0
20.05.2018 10:00:00 13,8 7,5 14,7 12,0 24 13 SSE 1021,9 30 0,0
20.05.2018 09:00:00 12,4 7,3 - - 22 12 SE 1021,9 21 0,0
20.05.2018 08:00:00 10,4 7,3 - - 22 12 SE 1021,8 18 0,0
20.05.2018 07:00:00 8,5 6,9 - - 18 10 SE 1022,0 10 0,0
20.05.2018 06:00:00 7,7 6,0 - - 16 9 SE 1021,9 12 0,0
20.05.2018 05:00:00 7,6 6,0 - - 15 8 SE 1022,1 12 0,0
20.05.2018 04:00:00 7,5 5,4 - - 11 6 SE 1022,4 15 0,0
20.05.2018 03:00:00 6,4 4,2 - - 9 5 SE 1022,5 17 0,0
20.05.2018 02:00:00 8,6 5,6 - - 9 5 ESE 1022,6 21 0,0
20.05.2018 01:00:00 9,2 6,4 - - 4 2 ESE 1022,9 18 0,0
20.05.2018 00:00:00 9,9 6,2 - - 8 4 E 1022,9 25 0,0
19.05.2018 23:00:00 10,3 6,4 - - 5 3 ESE 1023,1 30 0,0
19.05.2018 22:00:00 10,5 6,6 - - 2 1 E 1023,1 30 0,0
19.05.2018 21:00:00 12,0 6,8 - - 5 3 NW 1022,9 35 0,0
19.05.2018 20:00:00 14,1 7,4 - - 5 3 SSW 1022,7 30 0,0
19.05.2018 19:00:00 15,0 8,4 - - 13 7 S 1022,8 24 0,0
19.05.2018 18:00:00 16,0 9,6 - - 15 8 SSW 1022,8 35 0,0
19.05.2018 17:00:00 17,0 8,7 - - 13 7 S 1022,8 35 0,0
19.05.2018 16:00:00 17,2 8,3 - - 15 8 S 1022,9 21 0,0
19.05.2018 15:00:00 17,6 9,8 - - 15 8 S 1023,0 26 0,0
19.05.2018 14:00:00 17,5 7,8 - - 9 5 S 1023,2 27 0,0
19.05.2018 13:00:00 17,4 8,4 - - 13 7 S 1023,5 29 0,0
19.05.2018 12:00:00 17,4 7,7 - - 8 4 SSW 1023,8 30 0,0
19.05.2018 11:00:00 16,6 7,4 - - 5 3 SE 1024,0 24 0,0
19.05.2018 10:00:00 15,0 5,7 14,2 11,9 9 5 SSW 1024,3 25 0,0
19.05.2018 09:00:00 14,2 6,0 - - 5 3 SSE 1024,2 29 0,0
19.05.2018 08:00:00 11,6 5,7 - - 2 1 SW 1024,3 30 0,0
19.05.2018 07:00:00 9,5 3,5 - - 5 3 SE 1024,2 30 0,0
19.05.2018 06:00:00 7,9 0,9 - - 8 4 NE 1024,3 45 0,0
19.05.2018 05:00:00 8,4 0,4 - - 9 5 ENE 1024,1 35 0,0
19.05.2018 04:00:00 8,9 1,1 - - 15 8 ENE 1024,0 45 0,0
19.05.2018 03:00:00 8,1 1,1 - - 13 7 NNE 1024,4 35 0,0
19.05.2018 02:00:00 7,5 1,1 - - 9 5 N 1024,7 45 0,0
19.05.2018 01:00:00 7,2 0,9 - - 11 6 N 1025,2 45 0,0
19.05.2018 00:00:00 6,4 2,0 - - 11 6 N 1025,4 40 0,0
18.05.2018 23:00:00 7,2 3,5 - - 9 5 N 1025,4 30 0,0
18.05.2018 22:00:00 8,5 6,1 - - 11 6 NNW 1025,2 20 0,0
18.05.2018 21:00:00 10,3 6,1 - - 11 6 NNW 1025,0 30 0,0
18.05.2018 20:00:00 13,4 5,9 - - 15 8 NNW 1024,9 30 0,0
18.05.2018 19:00:00 15,5 5,9 - - 13 7 NW 1024,6 35 0,0
18.05.2018 18:00:00 16,4 5,7 - - 16 9 NW 1024,6 30 0,0
18.05.2018 17:00:00 17,5 7,6 - - 15 8 NNW 1024,5 22 0,0
18.05.2018 16:00:00 17,8 7,2 - - 15 8 NNW 1024,6 15 0,0
18.05.2018 15:00:00 17,4 8,2 - - 8 4 NNW 1024,7 18 0,0
18.05.2018 14:00:00 16,5 8,8 - - 5 3 NW 1025,0 16 0,0
18.05.2018 13:00:00 15,6 8,5 - - 5 3 WSW 1025,4 30 0,0
18.05.2018 12:00:00 15,4 9,0 - - 4 2 ESE 1025,6 24 0,0
18.05.2018 11:00:00 13,4 8,5 - - 4 2 S 1025,8 30 0,0
18.05.2018 10:00:00 12,0 9,4 14,0 11,7 11 6 SSE 1026,0 14 0,0
18.05.2018 09:00:00 10,0 7,1 - - 11 6 SE 1026,3 16 0,0
18.05.2018 08:00:00 9,6 6,4 - - 9 5 SSE 1026,3 22 0,0
18.05.2018 07:00:00 9,0 5,8 - - 8 4 SSE 1026,0 18 0,0

tt = temperature
td = dewpoint
tt -20cm = temperature -20cm
tt -100cm = temperature -100cm
ff = wind speed
dd = wind direction
ppp = reduced air pressure
vv = visibility
rr = precipitation

Next stations